| time (UTC) | temp F | wind direction | speed MPH | gust MPH | rain 1hr in | rain 24hr in | rain mn in | humidity % | barometer mb |
| 20260509124703 | 68 | 24 | 2.0 | 3.0 | 0.00 | 0.00 | 0.19 | 95 | 1011.3 |
| 20260509124201 | 67 | 102 | 4.0 | 5.0 | 0.00 | 0.00 | 0.19 | 95 | 1011.1 |
| 20260509123701 | 67 | 105 | 2.0 | 4.0 | 0.00 | 0.00 | 0.19 | 95 | 1011.1 |
| 20260509123202 | 67 | 133 | 2.0 | 3.0 | 0.01 | 0.00 | 0.19 | 95 | 1011.1 |
| 20260509122702 | 67 | 105 | 2.0 | 4.0 | 0.01 | 0.00 | 0.19 | 95 | 1011.1 |
| 20260509122202 | 67 | 139 | 5.0 | 9.0 | 0.02 | 0.00 | 0.19 | 95 | 1011.1 |
| 20260509121702 | 67 | 138 | 4.0 | 7.0 | 0.02 | 0.00 | 0.19 | 95 | 1011.2 |
| 20260509121201 | 67 | 137 | 4.0 | 6.0 | 0.02 | 0.00 | 0.19 | 95 | 1011.2 |
| 20260509120703 | 67 | 75 | 3.0 | 4.0 | 0.03 | 0.00 | 0.19 | 95 | 1011.2 |
| 20260509120200 | 67 | 85 | 2.0 | 3.0 | 0.04 | 0.00 | 0.19 | 95 | 1011.1 |
| 20260509115701 | 67 | 115 | 3.0 | 3.0 | 0.04 | 0.00 | 0.19 | 95 | 1011.1 |
| 20260509115202 | 67 | 112 | 3.0 | 4.0 | 0.04 | 0.00 | 0.19 | 95 | 1011.0 |
| 20260509114702 | 67 | 86 | 2.0 | 3.0 | 0.04 | 0.00 | 0.19 | 95 | 1011.0 |
| 20260509114202 | 67 | 117 | 3.0 | 3.0 | 0.03 | 0.00 | 0.19 | 95 | 1011.1 |
| 20260509113702 | 67 | 113 | 2.0 | 3.0 | 0.02 | 0.00 | 0.19 | 95 | 1011.1 |
| 20260509113200 | 67 | 139 | 3.0 | 4.0 | 0.02 | 0.00 | 0.18 | 95 | 1011.2 |
| 20260509112701 | 67 | 109 | 3.0 | 4.0 | 0.02 | 0.00 | 0.18 | 95 | 1011.1 |
| 20260509112207 | 67 | 117 | 3.0 | 4.0 | 0.02 | 0.00 | 0.18 | 95 | 1011.1 |
| 20260509111701 | 67 | 148 | 4.0 | 7.0 | 0.02 | 0.00 | 0.17 | 95 | 1011.2 |
| 20260509111203 | 67 | 57 | 2.0 | 3.0 | 0.02 | 0.00 | 0.17 | 95 | 1011.1 |
| 20260509110702 | 67 | 126 | 3.0 | 4.0 | 0.02 | 0.00 | 0.17 | 95 | 1011.1 |
| 20260509110202 | 67 | 102 | 2.0 | 3.0 | 0.00 | 0.00 | 0.17 | 95 | 1011.2 |
| 20260509105702 | 67 | 345 | 2.0 | 3.0 | 0.00 | 0.00 | 0.17 | 95 | 1011.2 |
| 20260509105200 | 67 | 23 | 3.0 | 4.0 | 0.00 | 0.00 | 0.15 | 95 | 1011.2 |
| 20260509104701 | 67 | 117 | 2.0 | 3.0 | 0.00 | 0.00 | 0.15 | 95 | 1011.0 |
| 20260509104201 | 67 | 133 | 2.0 | 3.0 | 0.00 | 0.00 | 0.15 | 95 | 1011.0 |
| 20260509103706 | 67 | 131 | 4.0 | 5.0 | 0.00 | 0.00 | 0.15 | 95 | 1010.9 |
| 20260509103201 | 67 | 102 | 2.0 | 3.0 | 0.00 | 0.00 | 0.15 | 95 | 1010.8 |
| 20260509102702 | 68 | 113 | 2.0 | 4.0 | 0.00 | 0.00 | 0.15 | 95 | 1010.8 |
| 20260509102200 | 68 | 106 | 5.0 | 7.0 | 0.00 | 0.00 | 0.33 | 95 | 1010.7 |
| 20260509101704 | 68 | 67 | 5.0 | 7.0 | 0.00 | 0.00 | 0.33 | 95 | 1010.8 |
| 20260509101202 | 69 | 105 | 4.0 | 4.0 | 0.00 | 0.00 | 0.33 | 95 | 1010.8 |
| 20260509100703 | 69 | 74 | 3.0 | 4.0 | 0.33 | 0.00 | 0.33 | 95 | 1010.7 |
| 20260509100202 | 69 | 87 | 2.0 | 3.0 | 0.33 | 0.00 | 0.33 | 95 | 1010.6 |
| 20260509095702 | 69 | 95 | 2.0 | 4.0 | 0.33 | 0.00 | 0.33 | 95 | 1010.5 |
| 20260509095200 | 69 | 56 | 2.0 | 3.0 | 0.33 | 0.00 | 0.33 | 95 | 1010.4 |
| 20260509094702 | 69 | 71 | 2.0 | 3.0 | 0.33 | 0.00 | 0.33 | 94 | 1010.2 |
| 20260509094200 | 69 | 112 | 3.0 | 3.0 | 0.33 | 0.00 | 0.33 | 94 | 1010.1 |
| 20260509093704 | 69 | 141 | 3.0 | 4.0 | 0.33 | 0.00 | 0.33 | 94 | 1010.0 |
| 20260509093200 | 69 | 135 | 3.0 | 4.0 | 0.33 | 0.00 | 0.33 | 94 | 1009.9 |
| 20260509092701 | 69 | 125 | 2.0 | 6.0 | 0.03 | 0.00 | 0.33 | 94 | 1010.1 |
| 20260509092200 | 69 | 114 | 3.0 | 5.0 | 0.03 | 0.00 | 0.33 | 94 | 1010.2 |
| 20260509091700 | 69 | 87 | 6.0 | 7.0 | 0.00 | 0.00 | 0.03 | 94 | 1010.4 |
| 20260509091200 | 69 | 160 | 3.0 | 4.0 | 0.00 | 0.00 | 0.03 | 94 | 1010.6 |
| 20260509090701 | 69 | 137 | 2.0 | 3.0 | 0.00 | 0.00 | 0.03 | 94 | 1010.7 |
| 20260509090203 | 69 | 64 | 4.0 | 6.0 | 0.00 | 0.00 | 0.03 | 94 | 1010.7 |
| 20260509085700 | 69 | 77 | 2.0 | 3.0 | 0.00 | 0.00 | 0.00 | 94 | 1010.7 |
| 20260509085200 | 69 | 74 | 3.0 | 3.0 | 0.00 | 0.00 | 0.00 | 94 | 1010.6 |
| 20260509084700 | 69 | 44 | 2.0 | 2.0 | 0.00 | 0.00 | 0.00 | 94 | 1010.6 |
| 20260509084201 | 69 | 356 | 2.0 | 2.0 | 0.00 | 0.00 | 0.00 | 94 | 1010.7 |
| 20260509083701 | 69 | 99 | 2.0 | 3.0 | 0.00 | 0.00 | 0.00 | 94 | 1010.7 |
| 20260509083201 | 69 | 95 | 2.0 | 2.0 | 0.00 | 0.00 | 0.00 | 94 | 1010.8 |
| 20260509082701 | 70 | 100 | 2.0 | 2.0 | 0.00 | 0.00 | 0.00 | 94 | 1010.8 |
| 20260509082200 | 70 | 126 | 2.0 | 2.0 | 0.00 | 0.00 | 0.00 | 93 | 1010.9 |
| 20260509081701 | 70 | 111 | 3.0 | 3.0 | 0.00 | 0.00 | 0.00 | 93 | 1010.9 |
| 20260509081203 | 70 | 97 | 2.0 | 2.0 | 0.00 | 0.00 | 0.00 | 93 | 1011.0 |
| 20260509080701 | 70 | 105 | 1.0 | 2.0 | 0.00 | 0.00 | 0.00 | 93 | 1011.2 |
| 20260509080202 | 70 | 84 | 2.0 | 2.0 | 0.00 | 0.00 | 0.00 | 93 | 1011.1 |
| 20260509075701 | 70 | 72 | 2.0 | 2.0 | 0.00 | 0.00 | 0.00 | 93 | 1011.0 |
| 20260509075200 | 70 | 98 | 2.0 | 2.0 | 0.00 | 0.00 | 0.00 | 93 | 1011.0 |
| 20260509074701 | 70 | 151 | 2.0 | 2.0 | 0.00 | 0.00 | 0.00 | 93 | 1011.0 |
| 20260509074202 | 70 | 144 | 2.0 | 2.0 | 0.00 | 0.00 | 0.00 | 92 | 1010.9 |
| 20260509073701 | 70 | 117 | 1.0 | 1.0 | 0.00 | 0.00 | 0.00 | 92 | 1011.0 |
| 20260509073200 | 70 | 91 | 0.0 | 1.0 | 0.00 | 0.00 | 0.00 | 92 | 1010.9 |
| 20260509072703 | 70 | 101 | 1.0 | 2.0 | 0.00 | 0.00 | 0.00 | 92 | 1010.9 |
| 20260509072201 | 70 | 97 | 2.0 | 2.0 | 0.00 | 0.00 | 0.00 | 92 | 1010.9 |
| 20260509071701 | 70 | 129 | 1.0 | 2.0 | 0.00 | 0.00 | 0.00 | 92 | 1011.0 |
| 20260509071202 | 70 | 139 | 1.0 | 2.0 | 0.00 | 0.00 | 0.00 | 92 | 1011.1 |
| 20260509070701 | 70 | 115 | 1.0 | 1.0 | 0.00 | 0.00 | 0.00 | 92 | 1011.2 |
| 20260509070203 | 70 | 139 | 0.0 | 0.0 | 0.00 | 0.00 | 0.00 | 92 | 1011.4 |
| 20260509065701 | 70 | 97 | 1.0 | 2.0 | 0.00 | 0.00 | 0.00 | 92 | 1011.4 |
| 20260509065200 | 70 | 106 | 1.0 | 1.0 | 0.00 | 0.00 | 0.00 | 92 | 1011.4 |
| 20260509064700 | 70 | 106 | 2.0 | 2.0 | 0.00 | 0.00 | 0.00 | 92 | 1011.4 |
| 20260509064201 | 70 | 94 | 1.0 | 2.0 | 0.00 | 0.00 | 0.00 | 92 | 1011.5 |
| 20260509063700 | 70 | 97 | 1.0 | 2.0 | 0.00 | 0.00 | 0.00 | 92 | 1011.5 |
| 20260509063201 | 70 | 95 | 1.0 | 1.0 | 0.00 | 0.00 | 0.00 | 92 | 1011.5 |
| 20260509062702 | 70 | 106 | 0.0 | 1.0 | 0.00 | 0.00 | 0.00 | 92 | 1011.6 |
| 20260509062200 | 70 | 105 | 0.0 | 1.0 | 0.00 | 0.00 | 0.00 | 92 | 1011.5 |
| 20260509061701 | 70 | 96 | 1.0 | 1.0 | 0.00 | 0.00 | 0.00 | 92 | 1011.6 |
| 20260509061200 | 70 | 128 | 0.0 | 0.0 | 0.00 | 0.00 | 0.00 | 92 | 1011.6 |
| 20260509060701 | 70 | 112 | 1.0 | 1.0 | 0.00 | 0.00 | 0.00 | 92 | 1011.7 |
| 20260509060202 | 70 | 134 | 0.0 | 0.0 | 0.00 | 0.00 | 0.00 | 92 | 1011.8 |
| 20260509055700 | 70 | 139 | 0.0 | 1.0 | 0.00 | 0.00 | 0.00 | 91 | 1011.8 |
| 20260509055200 | 70 | 118 | 1.0 | 2.0 | 0.00 | 0.00 | 0.00 | 91 | 1011.7 |
| 20260509054700 | 70 | 153 | 1.0 | 2.0 | 0.00 | 0.00 | 0.00 | 91 | 1011.8 |
| 20260509054201 | 70 | 160 | 1.0 | 2.0 | 0.00 | 0.00 | 0.00 | 91 | 1011.9 |
| 20260509053700 | 70 | 175 | 1.0 | 2.0 | 0.00 | 0.00 | 0.00 | 91 | 1012.0 |
| 20260509053201 | 70 | 155 | 0.0 | 1.0 | 0.00 | 0.00 | 0.00 | 91 | 1011.9 |
| 20260509052701 | 70 | 139 | 1.0 | 2.0 | 0.00 | 0.00 | 0.00 | 91 | 1011.8 |
| 20260509052200 | 70 | 179 | 1.0 | 2.0 | 0.00 | 0.00 | 0.00 | 91 | 1011.8 |
| 20260509051701 | 70 | 145 | 0.0 | 0.0 | 0.00 | 0.00 | 0.00 | 91 | 1011.8 |
| 20260509051202 | 70 | 203 | 1.0 | 2.0 | 0.00 | 0.00 | 0.00 | 91 | 1011.6 |
| 20260509050700 | 70 | 142 | 1.0 | 1.0 | 0.00 | 0.00 | 0.00 | 91 | 1011.5 |
| 20260509050203 | 70 | 106 | 1.0 | 1.0 | 0.00 | 0.00 | 0.00 | 91 | 1011.5 |
| 20260509045702 | 70 | 9 | 0.0 | 1.0 | 0.00 | 0.00 | 0.01 | 91 | 1011.4 |
| 20260509045200 | 70 | 153 | 2.0 | 2.0 | 0.00 | 0.00 | 0.01 | 91 | 1011.2 |
| 20260509044700 | 70 | 178 | 2.0 | 2.0 | 0.00 | 0.00 | 0.01 | 91 | 1011.3 |
| 20260509044202 | 70 | 69 | 0.0 | 1.0 | 0.00 | 0.00 | 0.01 | 91 | 1011.3 |
| 20260509043702 | 70 | 83 | 2.0 | 2.0 | 0.00 | 0.00 | 0.01 | 91 | 1011.2 |
| 20260509043201 | 70 | 73 | 2.0 | 2.0 | 0.00 | 0.00 | 0.01 | 91 | 1011.3 |
| 20260509042702 | 70 | 104 | 2.0 | 2.0 | 0.00 | 0.00 | 0.01 | 91 | 1011.3 |
| 20260509042201 | 70 | 112 | 0.0 | 1.0 | 0.00 | 0.00 | 0.01 | 90 | 1011.2 |
| 20260509041702 | 70 | 87 | 1.0 | 2.0 | 0.00 | 0.00 | 0.01 | 90 | 1011.1 |
| 20260509041200 | 70 | 0 | 0.0 | 0.0 | 0.00 | 0.00 | 0.01 | 90 | 1011.2 |
| 20260509040701 | 71 | 123 | 3.0 | 4.0 | 0.00 | 0.00 | 0.01 | 90 | 1011.2 |
| 20260509040202 | 71 | 132 | 3.0 | 3.0 | 0.00 | 0.00 | 0.01 | 90 | 1011.2 |
| 20260509035700 | 71 | 122 | 3.0 | 3.0 | 0.00 | 0.00 | 0.01 | 90 | 1011.1 |
| 20260509035200 | 71 | 139 | 2.0 | 2.0 | 0.00 | 0.00 | 0.01 | 90 | 1011.2 |
| 20260509034701 | 71 | 158 | 4.0 | 4.0 | 0.00 | 0.00 | 0.01 | 90 | 1011.1 |
| 20260509034202 | 71 | 166 | 4.0 | 4.0 | 0.00 | 0.00 | 0.01 | 90 | 1011.1 |
| 20260509033701 | 71 | 154 | 2.0 | 2.0 | 0.00 | 0.00 | 0.01 | 90 | 1011.2 |
| 20260509033200 | 71 | 139 | 1.0 | 2.0 | 0.00 | 0.00 | 0.01 | 90 | 1011.1 |
| 20260509032701 | 71 | 147 | 1.0 | 2.0 | 0.00 | 0.00 | 0.01 | 90 | 1011.1 |
| 20260509032200 | 71 | 257 | 3.0 | 4.0 | 0.00 | 0.00 | 0.01 | 90 | 1011.1 |
| 20260509031700 | 71 | 95 | 1.0 | 2.0 | 0.00 | 0.00 | 0.01 | 90 | 1011.0 |
| 20260509031201 | 71 | 165 | 5.0 | 6.0 | 0.00 | 0.00 | 0.01 | 90 | 1011.0 |
| 20260509030701 | 71 | 177 | 1.0 | 4.0 | 0.00 | 0.00 | 0.01 | 89 | 1010.9 |
| 20260509030202 | 71 | 165 | 5.0 | 9.0 | 0.00 | 0.00 | 0.01 | 89 | 1010.8 |
| 20260509025702 | 71 | 153 | 4.0 | 7.0 | 0.00 | 0.00 | 0.01 | 89 | 1010.6 |
| 20260509025203 | 71 | 147 | 4.0 | 8.0 | 0.00 | 0.00 | 0.01 | 89 | 1010.6 |
| 20260509024702 | 71 | 138 | 4.0 | 6.0 | 0.00 | 0.00 | 0.01 | 89 | 1010.6 |
| 20260509024201 | 71 | 145 | 4.0 | 6.0 | 0.00 | 0.00 | 0.01 | 89 | 1010.6 |
| 20260509023700 | 71 | 168 | 6.0 | 8.0 | 0.00 | 0.00 | 0.01 | 89 | 1010.5 |
| 20260509023202 | 71 | 163 | 6.0 | 7.0 | 0.00 | 0.00 | 0.01 | 89 | 1010.3 |
| 20260509022701 | 71 | 178 | 7.0 | 9.0 | 0.00 | 0.00 | 0.01 | 89 | 1010.3 |
| 20260509022202 | 71 | 154 | 5.0 | 6.0 | 0.00 | 0.00 | 0.01 | 89 | 1010.3 |
| 20260509021700 | 71 | 169 | 5.0 | 7.0 | 0.00 | 0.00 | 0.01 | 89 | 1010.2 |
| 20260509021203 | 71 | 153 | 5.0 | 6.0 | 0.00 | 0.00 | 0.01 | 89 | 1010.2 |
| 20260509020701 | 70 | 166 | 5.0 | 6.0 | 0.00 | 0.00 | 0.01 | 89 | 1010.2 |
| 20260509020202 | 70 | 165 | 7.0 | 9.0 | 0.00 | 0.00 | 0.01 | 89 | 1010.1 |
| 20260509015701 | 70 | 161 | 5.0 | 7.0 | 0.00 | 0.00 | 0.01 | 89 | 1010.0 |
| 20260509015201 | 70 | 170 | 7.0 | 11.0 | 0.00 | 0.00 | 0.01 | 89 | 1009.9 |
| 20260509014701 | 70 | 152 | 4.0 | 5.0 | 0.00 | 0.00 | 0.01 | 89 | 1009.9 |
| 20260509014200 | 70 | 160 | 5.0 | 6.0 | 0.00 | 0.00 | 0.01 | 89 | 1009.8 |
| 20260509013700 | 70 | 155 | 6.0 | 7.0 | 0.00 | 0.00 | 0.01 | 89 | 1009.7 |
| 20260509013200 | 70 | 157 | 5.0 | 6.0 | 0.00 | 0.00 | 0.01 | 90 | 1009.7 |
| 20260509012701 | 70 | 111 | 4.0 | 5.0 | 0.00 | 0.00 | 0.01 | 90 | 1009.7 |
| 20260509012201 | 70 | 111 | 3.0 | 5.0 | 0.00 | 0.00 | 0.01 | 90 | 1009.9 |
| 20260509011700 | 70 | 117 | 3.0 | 6.0 | 0.00 | 0.00 | 0.01 | 90 | 1009.9 |
| 20260509011203 | 70 | 137 | 2.0 | 4.0 | 0.00 | 0.00 | 0.01 | 90 | 1009.9 |
| 20260509010700 | 70 | 148 | 4.0 | 5.0 | 0.00 | 0.00 | 0.01 | 90 | 1009.9 |
| 20260509010200 | 70 | 147 | 4.0 | 7.0 | 0.00 | 0.00 | 0.01 | 89 | 1009.9 |
| 20260509005700 | 70 | 139 | 4.0 | 8.0 | 0.00 | 0.00 | 0.01 | 89 | 1009.8 |
| 20260509005201 | 71 | 158 | 6.0 | 8.0 | 0.00 | 0.00 | 0.01 | 89 | 1009.7 |
| 20260509004701 | 71 | 126 | 3.0 | 4.0 | 0.00 | 0.00 | 0.01 | 88 | 1009.9 |
| 20260509004200 | 71 | 110 | 6.0 | 8.0 | 0.00 | 0.00 | 0.01 | 88 | 1010.1 |
| 20260509003701 | 71 | 107 | 5.0 | 6.0 | 0.00 | 0.00 | 0.01 | 87 | 1010.4 |
| 20260509003200 | 71 | 112 | 4.0 | 9.0 | 0.00 | 0.00 | 0.01 | 87 | 1010.3 |
| 20260509002700 | 71 | 145 | 4.0 | 6.0 | 0.00 | 0.00 | 0.01 | 87 | 1010.3 |
| 20260509002201 | 72 | 137 | 2.0 | 5.0 | 0.00 | 0.00 | 0.01 | 87 | 1010.5 |
| 20260509001700 | 72 | 155 | 4.0 | 6.0 | 0.00 | 0.00 | 0.01 | 86 | 1010.7 |
| 20260509001201 | 72 | 108 | 4.0 | 6.0 | 0.00 | 0.00 | 0.01 | 86 | 1010.8 |
| 20260509000701 | 72 | 106 | 5.0 | 6.0 | 0.00 | 0.00 | 0.01 | 85 | 1010.8 |
| 20260509000201 | 72 | 104 | 4.0 | 5.0 | 0.00 | 0.00 | 0.01 | 85 | 1010.8 |
| 20260508235701 | 72 | 109 | 5.0 | 7.0 | 0.00 | 0.00 | 0.01 | 85 | 1010.9 |
| 20260508235201 | 72 | 91 | 5.0 | 7.0 | 0.00 | 0.00 | 0.01 | 85 | 1010.9 |
| 20260508234701 | 72 | 112 | 1.0 | 3.0 | 0.00 | 0.00 | 0.01 | 85 | 1011.1 |
| 20260508234201 | 72 | 158 | 4.0 | 6.0 | 0.01 | 0.00 | 0.01 | 85 | 1011.1 |
| 20260508233701 | 72 | 154 | 4.0 | 5.0 | 0.01 | 0.00 | 0.01 | 85 | 1011.1 |
| 20260508233201 | 72 | 147 | 3.0 | 4.0 | 0.00 | 0.00 | 0.01 | 85 | 1011.2 |
| 20260508232703 | 72 | 108 | 2.0 | 3.0 | 0.00 | 0.00 | 0.01 | 85 | 1011.4 |
| 20260508232201 | 72 | 109 | 1.0 | 2.0 | 0.00 | 0.00 | 0.01 | 84 | 1011.4 |
| 20260508231700 | 72 | 107 | 3.0 | 4.0 | 0.00 | 0.00 | 0.01 | 84 | 1011.4 |
| 20260508231200 | 72 | 111 | 4.0 | 5.0 | 0.00 | 0.00 | 0.01 | 84 | 1011.3 |
| 20260508230701 | 72 | 88 | 2.0 | 3.0 | 0.00 | 0.00 | 0.01 | 83 | 1011.2 |
| 20260508230205 | 72 | 161 | 0.0 | 1.0 | 0.00 | 0.00 | 0.01 | 83 | 1011.2 |
| 20260508225701 | 72 | 115 | 2.0 | 4.0 | 0.00 | 0.00 | 0.01 | 83 | 1011.1 |
| 20260508225200 | 72 | 118 | 2.0 | 3.0 | 0.00 | 0.00 | 0.01 | 83 | 1011.0 |
| 20260508224701 | 72 | 168 | 2.0 | 5.0 | 0.00 | 0.00 | 0.01 | 83 | 1011.0 |
| 20260508224201 | 72 | 154 | 4.0 | 5.0 | 0.00 | 0.00 | 0.01 | 83 | 1011.0 |
| 20260508223700 | 73 | 129 | 2.0 | 4.0 | 0.00 | 0.00 | 0.01 | 83 | 1010.8 |
| 20260508223200 | 73 | 81 | 3.0 | 4.0 | 0.00 | 0.00 | 0.01 | 82 | 1010.8 |
| 20260508222702 | 73 | 114 | 6.0 | 9.0 | 0.00 | 0.00 | 0.01 | 81 | 1010.8 |
| 20260508222202 | 72 | 154 | 3.0 | 4.0 | 0.00 | 0.00 | 0.01 | 83 | 1010.8 |
| 20260508221703 | 72 | 129 | 3.0 | 4.0 | 0.00 | 0.00 | 0.01 | 82 | 1011.0 |
| 20260508221202 | 72 | 143 | 3.0 | 4.0 | 0.00 | 0.00 | 0.01 | 82 | 1011.0 |
| 20260508220700 | 72 | 127 | 2.0 | 4.0 | 0.00 | 0.00 | 0.01 | 82 | 1011.0 |
| 20260508220201 | 72 | 84 | 2.0 | 3.0 | 0.00 | 0.00 | 0.01 | 82 | 1011.0 |
| 20260508215702 | 72 | 167 | 2.0 | 4.0 | 0.00 | 0.00 | 0.01 | 82 | 1011.1 |
| 20260508215201 | 72 | 170 | 6.0 | 8.0 | 0.00 | 0.00 | 0.01 | 81 | 1011.1 |
| 20260508214702 | 72 | 169 | 5.0 | 8.0 | 0.00 | 0.00 | 0.01 | 80 | 1011.0 |
| 20260508214202 | 73 | 158 | 6.0 | 9.0 | 0.00 | 0.00 | 0.01 | 80 | 1011.1 |
| 20260508213701 | 73 | 151 | 4.0 | 8.0 | 0.00 | 0.00 | 0.01 | 80 | 1011.2 |
| 20260508213203 | 73 | 160 | 6.0 | 8.0 | 0.00 | 0.00 | 0.01 | 80 | 1011.2 |
| 20260508212703 | 73 | 176 | 5.0 | 9.0 | 0.00 | 0.00 | 0.01 | 79 | 1011.4 |
| 20260508212201 | 73 | 108 | 4.0 | 6.0 | 0.00 | 0.00 | 0.01 | 78 | 1011.2 |
| 20260508211703 | 73 | 164 | 4.0 | 6.0 | 0.00 | 0.00 | 0.01 | 77 | 1011.5 |
| 20260508211203 | 73 | 162 | 2.0 | 4.0 | 0.00 | 0.00 | 0.01 | 76 | 1011.6 |
| 20260508210702 | 73 | 148 | 3.0 | 5.0 | 0.00 | 0.00 | 0.01 | 76 | 1011.6 |
| 20260508210202 | 73 | 88 | 2.0 | 4.0 | 0.00 | 0.00 | 0.01 | 75 | 1011.6 |
| 20260508205703 | 73 | 92 | 3.0 | 6.0 | 0.00 | 0.00 | 0.01 | 74 | 1011.6 |
| 20260508205202 | 73 | 125 | 2.0 | 6.0 | 0.00 | 0.00 | 0.01 | 74 | 1011.6 |
| 20260508204703 | 73 | 93 | 2.0 | 5.0 | 0.00 | 0.00 | 0.01 | 73 | 1011.7 |
| 20260508204203 | 72 | 76 | 3.0 | 5.0 | 0.00 | 0.00 | 0.01 | 75 | 1011.6 |
| 20260508203702 | 72 | 161 | 7.0 | 9.0 | 0.00 | 0.00 | 0.01 | 74 | 1011.7 |
| 20260508203201 | 72 | 114 | 2.0 | 4.0 | 0.00 | 0.00 | 0.01 | 75 | 1011.7 |
| 20260508202704 | 72 | 104 | 4.0 | 8.0 | 0.00 | 0.00 | 0.01 | 74 | 1011.7 |
| 20260508202202 | 72 | 108 | 4.0 | 6.0 | 0.00 | 0.00 | 0.01 | 74 | 1011.7 |
| 20260508201701 | 72 | 154 | 5.0 | 8.0 | 0.00 | 0.00 | 0.01 | 73 | 1011.7 |
| 20260508201203 | 71 | 88 | 3.0 | 5.0 | 0.00 | 0.00 | 0.01 | 72 | 1011.7 |
| 20260508200702 | 71 | 144 | 4.0 | 7.0 | 0.00 | 0.00 | 0.01 | 75 | 1011.9 |
| 20260508200203 | 71 | 166 | 4.0 | 6.0 | 0.00 | 0.00 | 0.01 | 72 | 1011.8 |
| 20260508195702 | 71 | 91 | 3.0 | 6.0 | 0.00 | 0.00 | 0.01 | 72 | 1011.8 |
| 20260508195203 | 71 | 167 | 3.0 | 4.0 | 0.00 | 0.00 | 0.01 | 72 | 1011.8 |
| 20260508194702 | 70 | 112 | 4.0 | 5.0 | 0.00 | 0.00 | 0.01 | 73 | 1011.9 |
| 20260508194202 | 69 | 104 | 4.0 | 7.0 | 0.00 | 0.00 | 0.01 | 74 | 1011.9 |
| 20260508193703 | 69 | 106 | 4.0 | 7.0 | 0.00 | 0.00 | 0.01 | 73 | 1011.9 |
| 20260508193202 | 69 | 115 | 3.0 | 5.0 | 0.00 | 0.00 | 0.01 | 73 | 1012.0 |
| 20260508192703 | 69 | 101 | 4.0 | 6.0 | 0.00 | 0.00 | 0.01 | 72 | 1012.2 |
| 20260508192202 | 69 | 114 | 3.0 | 5.0 | 0.00 | 0.00 | 0.01 | 73 | 1012.3 |
| 20260508191703 | 69 | 148 | 4.0 | 7.0 | 0.00 | 0.00 | 0.01 | 74 | 1012.2 |
| 20260508191201 | 69 | 106 | 4.0 | 6.0 | 0.00 | 0.00 | 0.01 | 74 | 1012.3 |
| 20260508190700 | 69 | 60 | 4.0 | 5.0 | 0.00 | 0.00 | 0.01 | 74 | 1012.4 |
| 20260508190204 | 69 | 111 | 4.0 | 5.0 | 0.00 | 0.00 | 0.01 | 73 | 1012.5 |
| 20260508185702 | 68 | 146 | 2.0 | 4.0 | 0.00 | 0.00 | 0.01 | 74 | 1012.5 |
| 20260508185202 | 68 | 108 | 5.0 | 7.0 | 0.00 | 0.00 | 0.01 | 74 | 1012.5 |
| 20260508184701 | 67 | 89 | 5.0 | 9.0 | 0.00 | 0.00 | 0.01 | 75 | 1012.6 |
| 20260508184202 | 67 | 101 | 5.0 | 7.0 | 0.00 | 0.00 | 0.01 | 74 | 1012.7 |
| 20260508183704 | 67 | 97 | 4.0 | 6.0 | 0.00 | 0.00 | 0.01 | 74 | 1012.8 |
| 20260508183202 | 68 | 91 | 6.0 | 9.0 | 0.00 | 0.00 | 0.01 | 74 | 1012.8 |
| 20260508182702 | 67 | 95 | 6.0 | 8.0 | 0.00 | 0.00 | 0.01 | 75 | 1013.0 |
| 20260508182202 | 67 | 102 | 6.0 | 8.0 | 0.00 | 0.00 | 0.01 | 76 | 1013.0 |
| 20260508181702 | 67 | 172 | 7.0 | 10.0 | 0.00 | 0.00 | 0.01 | 75 | 1013.2 |
| 20260508181201 | 68 | 165 | 6.0 | 8.0 | 0.00 | 0.00 | 0.01 | 75 | 1013.2 |
| 20260508180701 | 68 | 161 | 6.0 | 9.0 | 0.00 | 0.00 | 0.01 | 76 | 1013.3 |
| 20260508180203 | 68 | 154 | 4.0 | 7.0 | 0.00 | 0.00 | 0.01 | 75 | 1013.3 |
| 20260508175702 | 67 | 85 | 4.0 | 6.0 | 0.00 | 0.00 | 0.01 | 75 | 1013.4 |
| 20260508175204 | 67 | 99 | 4.0 | 6.0 | 0.00 | 0.00 | 0.01 | 75 | 1013.6 |
| 20260508174702 | 67 | 130 | 2.0 | 4.0 | 0.00 | 0.00 | 0.01 | 75 | 1013.7 |
| 20260508174201 | 67 | 100 | 6.0 | 7.0 | 0.00 | 0.00 | 0.01 | 74 | 1013.7 |
| 20260508173702 | 67 | 142 | 4.0 | 7.0 | 0.00 | 0.00 | 0.01 | 74 | 1013.8 |
| 20260508173201 | 67 | 91 | 7.0 | 9.0 | 0.00 | 0.00 | 0.01 | 73 | 1013.8 |
| 20260508172701 | 67 | 138 | 4.0 | 9.0 | 0.00 | 0.00 | 0.01 | 75 | 1013.9 |
| 20260508172202 | 66 | 74 | 9.0 | 12.0 | 0.00 | 0.00 | 0.01 | 75 | 1013.9 |
| 20260508171702 | 65 | 55 | 5.0 | 8.0 | 0.00 | 0.00 | 0.01 | 76 | 1013.9 |
| 20260508171202 | 65 | 78 | 7.0 | 10.0 | 0.00 | 0.00 | 0.01 | 76 | 1014.0 |
| 20260508170704 | 65 | 92 | 7.0 | 9.0 | 0.00 | 0.00 | 0.01 | 77 | 1014.1 |
| 20260508170204 | 65 | 78 | 7.0 | 11.0 | 0.00 | 0.00 | 0.01 | 77 | 1014.1 |
| 20260508165701 | 65 | 70 | 6.0 | 9.0 | 0.00 | 0.00 | 0.01 | 79 | 1014.1 |
| 20260508165203 | 65 | 81 | 5.0 | 8.0 | 0.00 | 0.00 | 0.01 | 78 | 1014.3 |
| 20260508164703 | 64 | 83 | 5.0 | 7.0 | 0.00 | 0.00 | 0.01 | 80 | 1014.3 |
| 20260508164202 | 64 | 87 | 7.0 | 8.0 | 0.00 | 0.00 | 0.01 | 80 | 1014.5 |
| 20260508163703 | 64 | 116 | 3.0 | 4.0 | 0.00 | 0.00 | 0.01 | 82 | 1014.9 |
| 20260508163203 | 64 | 101 | 2.0 | 4.0 | 0.00 | 0.00 | 0.01 | 81 | 1015.0 |
| 20260508162701 | 64 | 50 | 5.0 | 7.0 | 0.00 | 0.00 | 0.01 | 82 | 1014.8 |
| 20260508162201 | 63 | 79 | 5.0 | 6.0 | 0.00 | 0.00 | 0.01 | 83 | 1014.8 |
| 20260508161701 | 63 | 117 | 5.0 | 7.0 | 0.00 | 0.00 | 0.01 | 83 | 1014.7 |
| 20260508161204 | 63 | 107 | 4.0 | 5.0 | 0.00 | 0.00 | 0.01 | 83 | 1014.7 |
| 20260508160701 | 63 | 84 | 7.0 | 10.0 | 0.00 | 0.00 | 0.01 | 84 | 1014.4 |
| 20260508160202 | 63 | 87 | 5.0 | 6.0 | 0.00 | 0.00 | 0.01 | 85 | 1014.5 |
| 20260508155701 | 63 | 79 | 6.0 | 7.0 | 0.00 | 0.00 | 0.01 | 85 | 1014.5 |
| 20260508155202 | 62 | 91 | 5.0 | 6.0 | 0.00 | 0.00 | 0.01 | 86 | 1014.7 |
| 20260508154702 | 62 | 65 | 6.0 | 7.0 | 0.00 | 0.00 | 0.01 | 86 | 1014.8 |
| 20260508154203 | 62 | 64 | 4.0 | 6.0 | 0.00 | 0.00 | 0.01 | 86 | 1015.0 |
| 20260508153702 | 62 | 82 | 4.0 | 5.0 | 0.00 | 0.00 | 0.01 | 87 | 1015.0 |
| 20260508153203 | 62 | 96 | 4.0 | 6.0 | 0.00 | 0.00 | 0.01 | 87 | 1015.2 |
| 20260508152702 | 62 | 102 | 5.0 | 7.0 | 0.00 | 0.00 | 0.01 | 88 | 1015.2 |
| 20260508152201 | 62 | 86 | 5.0 | 7.0 | 0.00 | 0.00 | 0.01 | 89 | 1015.2 |
| 20260508151702 | 62 | 92 | 4.0 | 6.0 | 0.01 | 0.00 | 0.01 | 91 | 1015.2 |
| 20260508151203 | 62 | 55 | 3.0 | 4.0 | 0.01 | 0.00 | 0.01 | 92 | 1015.3 |
| 20260508150703 | 62 | 79 | 3.0 | 4.0 | 0.01 | 0.00 | 0.01 | 91 | 1015.3 |
| 20260508150203 | 62 | 64 | 4.0 | 4.0 | 0.01 | 0.00 | 0.01 | 91 | 1015.6 |
| 20260508145701 | 62 | 49 | 1.0 | 2.0 | 0.01 | 0.00 | 0.01 | 91 | 1015.9 |
| 20260508145202 | 62 | 86 | 2.0 | 2.0 | 0.01 | 0.00 | 0.01 | 90 | 1015.9 |
| 20260508144702 | 62 | 196 | 2.0 | 3.0 | 0.01 | 0.00 | 0.01 | 90 | 1016.2 |
| 20260508144202 | 62 | 166 | 1.0 | 2.0 | 0.00 | 0.00 | 0.01 | 90 | 1016.0 |
| 20260508143702 | 62 | 116 | 2.0 | 2.0 | 0.01 | 0.00 | 0.00 | 90 | 1015.8 |
| 20260508143204 | 62 | 93 | 1.0 | 1.0 | 0.01 | 0.00 | 0.01 | 90 | 1015.7 |
| 20260508142702 | 62 | 98 | 2.0 | 2.0 | 0.01 | 0.00 | 0.01 | 90 | 1015.5 |
| 20260508142202 | 62 | 59 | 2.0 | 3.0 | 0.01 | 0.00 | 0.01 | 90 | 1015.4 |
| 20260508141703 | 62 | 123 | 2.0 | 2.0 | 0.00 | 0.00 | 0.00 | 90 | 1015.4 |
| 20260508141200 | 62 | 0 | 0.0 | 0.0 | 0.00 | 0.00 | 0.00 | 91 | 1015.6 |
| 20260508140702 | 62 | 93 | 1.0 | 2.0 | 0.00 | 0.00 | 0.00 | 91 | 1015.0 |
| 20260508140203 | 62 | 196 | 3.0 | 4.0 | 0.00 | 0.00 | 0.00 | 91 | 1014.9 |
| 20260508135702 | 62 | 328 | 1.0 | 2.0 | 0.00 | 0.00 | 0.00 | 90 | 1015.2 |
| 20260508135203 | 62 | 88 | 2.0 | 2.0 | 0.00 | 0.00 | 0.00 | 90 | 1014.9 |
| 20260508134700 | 62 | 105 | 3.0 | 4.0 | 0.00 | 0.00 | 0.00 | 90 | 1015.1 |
| 20260508134202 | 62 | 75 | 2.0 | 2.0 | 0.00 | 0.00 | 0.00 | 90 | 1015.0 |
| 20260508133704 | 62 | 100 | 3.0 | 4.0 | 0.00 | 0.00 | 0.00 | 90 | 1015.0 |
| 20260508133202 | 61 | 48 | 2.0 | 3.0 | 0.00 | 0.00 | 0.00 | 90 | 1015.1 |
| 20260508132703 | 61 | 95 | 3.0 | 4.0 | 0.00 | 0.00 | 0.00 | 90 | 1013.9 |
| 20260508132202 | 61 | 88 | 4.0 | 5.0 | 0.00 | 0.00 | 0.00 | 90 | 1014.2 |
| 20260508131701 | 61 | 82 | 3.0 | 4.0 | 0.00 | 0.00 | 0.00 | 90 | 1014.3 |
| 20260508131202 | 61 | 74 | 5.0 | 7.0 | 0.00 | 0.00 | 0.00 | 90 | 1014.3 |
| 20260508130704 | 61 | 92 | 4.0 | 4.0 | 0.00 | 0.00 | 0.00 | 91 | 1014.3 |
| 20260508130207 | 61 | 84 | 2.0 | 3.0 | 0.00 | 0.00 | 0.00 | 91 | 1014.2 |
| 20260508125703 | 61 | 91 | 3.0 | 4.0 | 0.00 | 0.00 | 0.00 | 91 | 1014.2 |
| 20260508125202 | 62 | 103 | 2.0 | 2.0 | 0.00 | 0.00 | 0.00 | 91 | 1014.3 |